マクノート彗星

P/2005 L1 ( McNaught ) 2021

English version
Home page
Updated on March 19, 2021

---------------------------------------------------------------------

・ プロフィール

・ 軌道要素

Epoch 2021 Nov. 2.0 TT = JDT 2459520.5                                          
T 2021 Nov. 2.85126 TT                                  Rudenko                 
q   3.1425930            (2000.0)            P               Q                  
n   0.12426038     Peri.  149.74456     +0.31194978     +0.94585799             
a   3.9772321      Node   138.24804     -0.89646044     +0.32428625             
e   0.2098542      Incl.    7.73852     -0.31471577     +0.01382326             
P   7.93                                                                        
From 241 observations 2005 May 16-Sept. 15, mean residual 0".5.                 

・ 光度変化

        m1 = 14.0 + 5 logΔ + 10.0 log r

---------------------------------------------------------------------

軌道要素はM.P.E.C. 2020-P19に掲載されたものです。
光度グラフはComet for Windowsで作成したものです。

---------------------------------------------------------------------

Copyright(C) Seiichi Yoshida (comet@aerith.net). All rights reserved.